Time,TemperatureF,DewpointF,PressureIn,WindDirection,WindDirectionDegrees,WindSpeedMPH,WindSpeedGustMPH,Humidity,HourlyPrecipIn,Conditions,Clouds,dailyrainin,SoftwareType,DateUTC
2013-11-11 00:02:00,76.7,74.0,29.93,ESE,114,1.0,2.0,91,0.00,,,0.00,weatherlink.com 1.10,2013-11-11 04:02:00,
2013-11-11 00:17:00,76.8,74.0,29.94,SE,139,0.0,1.0,90,0.00,,,0.00,weatherlink.com 1.10,2013-11-11 04:17:00,
2013-11-11 00:32:00,76.6,74.0,29.94,ENE,63,0.0,4.0,90,0.00,,,0.00,weatherlink.com 1.10,2013-11-11 04:32:00,
2013-11-11 00:47:00,76.0,73.0,29.93,ENE,63,0.0,1.0,91,0.00,,,0.00,weatherlink.com 1.10,2013-11-11 04:47:00,
2013-11-11 01:02:00,75.7,73.0,29.92,SE,138,0.0,2.0,92,0.00,,,0.00,weatherlink.com 1.10,2013-11-11 05:02:00,
2013-11-11 01:17:00,75.7,73.0,29.92,SSE,148,1.0,2.0,92,0.00,,,0.00,weatherlink.com 1.10,2013-11-11 05:17:00,
2013-11-11 01:32:00,75.3,73.0,29.92,SE,143,0.0,1.0,92,0.00,,,0.00,weatherlink.com 1.10,2013-11-11 05:32:00,
2013-11-11 01:47:00,75.0,73.0,29.92,SE,142,1.0,2.0,92,0.00,,,0.00,weatherlink.com 1.10,2013-11-11 05:47:00,
2013-11-11 02:02:00,74.7,72.0,29.91,SSE,153,1.0,2.0,92,0.00,,,0.00,weatherlink.com 1.10,2013-11-11 06:02:00,
2013-11-11 02:17:00,74.5,72.0,29.91,SSE,154,0.0,1.0,93,0.00,,,0.00,weatherlink.com 1.10,2013-11-11 06:17:00,
2013-11-11 02:32:00,74.4,72.0,29.91,SSE,153,0.0,1.0,93,0.00,,,0.00,weatherlink.com 1.10,2013-11-11 06:32:00,
2013-11-11 02:47:00,74.3,72.0,29.91,SE,128,0.0,0.0,93,0.00,,,0.00,weatherlink.com 1.10,2013-11-11 06:47:00,
2013-11-11 03:02:00,74.3,73.0,29.91,SE,128,0.0,1.0,94,0.00,,,0.00,weatherlink.com 1.10,2013-11-11 07:02:00,
2013-11-11 03:17:00,74.3,73.0,29.91,SE,128,0.0,1.0,94,0.00,,,0.00,weatherlink.com 1.10,2013-11-11 07:17:00,
2013-11-11 03:32:00,74.2,72.0,29.91,SE,132,0.0,3.0,94,0.00,,,0.00,weatherlink.com 1.10,2013-11-11 07:32:00,
2013-11-11 03:47:00,74.7,72.0,29.90,SSE,160,1.0,5.0,92,0.00,,,0.00,weatherlink.com 1.10,2013-11-11 07:47:00,
2013-11-11 04:02:00,75.3,73.0,29.90,SE,139,0.0,3.0,91,0.01,,,0.01,weatherlink.com 1.10,2013-11-11 08:02:00,
2013-11-11 04:17:00,75.2,72.0,29.90,SSE,147,1.0,3.0,90,0.01,,,0.01,weatherlink.com 1.10,2013-11-11 08:17:00,
2013-11-11 04:32:00,74.8,72.0,29.90,SE,141,1.0,2.0,91,0.01,,,0.01,weatherlink.com 1.10,2013-11-11 08:32:00,
2013-11-11 04:47:00,74.4,72.0,29.90,SE,129,1.0,2.0,92,0.01,,,0.01,weatherlink.com 1.10,2013-11-11 08:47:00,
2013-11-11 05:03:00,74.0,72.0,29.91,SSE,153,0.0,3.0,93,0.00,,,0.01,weatherlink.com 1.10,2013-11-11 09:03:00,
2013-11-11 05:17:00,74.0,72.0,29.91,SE,139,0.0,1.0,93,0.00,,,0.01,weatherlink.com 1.10,2013-11-11 09:17:00,
2013-11-11 05:32:00,74.0,72.0,29.91,SE,129,2.0,2.0,93,0.00,,,0.01,weatherlink.com 1.10,2013-11-11 09:32:00,
2013-11-11 05:47:00,73.9,72.0,29.91,SE,134,0.0,1.0,93,0.00,,,0.01,weatherlink.com 1.10,2013-11-11 09:47:00,
2013-11-11 06:02:00,73.8,72.0,29.91,SE,134,0.0,1.0,93,0.00,,,0.01,weatherlink.com 1.10,2013-11-11 10:02:00,
2013-11-11 06:17:00,73.6,72.0,29.92,SE,134,0.0,0.0,93,0.00,,,0.01,weatherlink.com 1.10,2013-11-11 10:17:00,
2013-11-11 06:32:00,73.8,72.0,29.93,SE,134,0.0,1.0,94,0.00,,,0.01,weatherlink.com 1.10,2013-11-11 10:32:00,
2013-11-11 06:47:00,73.7,72.0,29.94,SE,134,0.0,1.0,94,0.00,,,0.01,weatherlink.com 1.10,2013-11-11 10:47:00,
2013-11-11 07:02:00,73.9,72.0,29.94,SE,134,0.0,0.0,94,0.00,,,0.01,weatherlink.com 1.10,2013-11-11 11:02:00,
2013-11-11 07:17:00,75.1,74.0,29.95,SE,134,0.0,1.0,95,0.00,,,0.01,weatherlink.com 1.10,2013-11-11 11:17:00,
2013-11-11 07:32:00,76.3,74.0,29.95,SE,134,0.0,1.0,92,0.00,,,0.01,weatherlink.com 1.10,2013-11-11 11:32:00,
2013-11-11 07:47:00,78.1,75.0,29.96,SSE,157,2.0,2.0,89,0.00,,,0.01,weatherlink.com 1.10,2013-11-11 11:47:00,
2013-11-11 08:02:00,80.0,76.0,29.96,SSE,150,0.0,2.0,87,0.00,,,0.01,weatherlink.com 1.10,2013-11-11 12:02:00,
2013-11-11 08:17:00,82.2,76.0,29.96,SSE,150,0.0,2.0,82,0.00,,,0.01,weatherlink.com 1.10,2013-11-11 12:17:00,
2013-11-11 08:32:00,82.3,76.0,29.96,SE,146,1.0,3.0,81,0.00,,,0.01,weatherlink.com 1.10,2013-11-11 12:32:00,
2013-11-11 08:47:00,83.7,77.0,29.97,ESE,120,0.0,3.0,80,0.00,,,0.01,weatherlink.com 1.10,2013-11-11 12:47:00,
2013-11-11 09:03:00,84.3,77.0,29.98,East,89,3.0,4.0,78,0.00,,,0.01,weatherlink.com 1.10,2013-11-11 13:03:00,
2013-11-11 09:18:00,84.3,77.0,29.98,ESE,112,2.0,6.0,78,0.00,,,0.01,weatherlink.com 1.10,2013-11-11 13:18:00,
2013-11-11 09:33:00,84.6,77.0,29.98,East,90,3.0,7.0,77,0.00,,,0.01,weatherlink.com 1.10,2013-11-11 13:33:00,
2013-11-11 09:48:00,85.1,76.0,29.98,East,85,3.0,8.0,74,0.00,,,0.01,weatherlink.com 1.10,2013-11-11 13:48:00,
2013-11-11 10:03:00,85.2,77.0,29.98,East,98,4.0,9.0,75,0.00,,,0.01,weatherlink.com 1.10,2013-11-11 14:03:00,
2013-11-11 10:18:00,86.0,76.0,29.98,East,94,3.0,9.0,72,0.00,,,0.01,weatherlink.com 1.10,2013-11-11 14:18:00,
2013-11-11 10:33:00,86.5,77.0,29.97,ENE,75,5.0,8.0,72,0.00,,,0.01,weatherlink.com 1.10,2013-11-11 14:33:00,
2013-11-11 10:48:00,86.8,76.0,29.97,NE,47,5.0,11.0,69,0.00,,,0.01,weatherlink.com 1.10,2013-11-11 14:48:00,
2013-11-11 11:03:00,86.7,76.0,29.97,East,90,4.0,11.0,70,0.00,,,0.01,weatherlink.com 1.10,2013-11-11 15:03:00,
2013-11-11 11:18:00,87.3,76.0,29.96,East,79,8.0,10.0,69,0.00,,,0.01,weatherlink.com 1.10,2013-11-11 15:18:00,
2013-11-11 11:33:00,87.8,76.0,29.96,ENE,78,4.0,9.0,67,0.00,,,0.01,weatherlink.com 1.10,2013-11-11 15:33:00,
2013-11-11 11:48:00,86.7,77.0,29.95,ENE,77,5.0,8.0,72,0.00,,,0.01,weatherlink.com 1.10,2013-11-11 15:48:00,
2013-11-11 12:03:00,87.7,77.0,29.95,ENE,61,6.0,9.0,71,0.00,,,0.01,weatherlink.com 1.10,2013-11-11 16:03:00,
2013-11-11 12:18:00,87.4,77.0,29.94,East,90,4.0,9.0,72,0.00,,,0.01,weatherlink.com 1.10,2013-11-11 16:18:00,
2013-11-11 12:33:00,87.5,77.0,29.94,NE,56,6.0,13.0,72,0.00,,,0.01,weatherlink.com 1.10,2013-11-11 16:33:00,
2013-11-11 12:48:00,87.0,77.0,29.93,NE,46,5.0,10.0,73,0.00,,,0.01,weatherlink.com 1.10,2013-11-11 16:48:00,
2013-11-11 13:03:00,88.1,74.0,29.92,ESE,117,5.0,11.0,63,0.00,,,0.01,weatherlink.com 1.10,2013-11-11 17:03:00,
2013-11-11 13:18:00,88.0,74.0,29.92,NE,53,6.0,13.0,63,0.00,,,0.01,weatherlink.com 1.10,2013-11-11 17:18:00,
2013-11-11 13:33:00,88.0,74.0,29.91,ESE,110,9.0,10.0,64,0.00,,,0.01,weatherlink.com 1.10,2013-11-11 17:33:00,
2013-11-11 13:48:00,88.1,75.0,29.91,ESE,105,6.0,12.0,65,0.00,,,0.01,weatherlink.com 1.10,2013-11-11 17:48:00,
2013-11-11 14:03:00,88.0,74.0,29.90,ESE,110,2.0,10.0,64,0.00,,,0.01,weatherlink.com 1.10,2013-11-11 18:03:00,
2013-11-11 14:18:00,87.7,74.0,29.90,ESE,110,5.0,11.0,64,0.00,,,0.01,weatherlink.com 1.10,2013-11-11 18:18:00,
2013-11-11 14:33:00,88.5,74.0,29.90,East,92,6.0,12.0,63,0.00,,,0.01,weatherlink.com 1.10,2013-11-11 18:33:00,
2013-11-11 14:48:00,87.5,76.0,29.90,ENE,78,7.0,12.0,69,0.00,,,0.01,weatherlink.com 1.10,2013-11-11 18:48:00,
2013-11-11 15:03:00,87.6,76.0,29.90,ENE,60,5.0,12.0,68,0.00,,,0.01,weatherlink.com 1.10,2013-11-11 19:03:00,
2013-11-11 15:18:00,87.9,76.0,29.90,East,79,6.0,10.0,68,0.00,,,0.01,weatherlink.com 1.10,2013-11-11 19:18:00,
2013-11-11 15:33:00,86.7,75.0,29.90,ENE,77,7.0,11.0,69,0.00,,,0.01,weatherlink.com 1.10,2013-11-11 19:33:00,
2013-11-11 15:48:00,86.8,76.0,29.90,North,10,6.0,11.0,71,0.00,,,0.01,weatherlink.com 1.10,2013-11-11 19:48:00,
2013-11-11 16:03:00,86.3,76.0,29.90,NE,55,5.0,11.0,72,0.00,,,0.01,weatherlink.com 1.10,2013-11-11 20:03:00,
2013-11-11 16:18:00,85.7,76.0,29.90,East,82,7.0,10.0,73,0.00,,,0.01,weatherlink.com 1.10,2013-11-11 20:18:00,
2013-11-11 16:33:00,85.9,76.0,29.90,ESE,117,6.0,8.0,73,0.00,,,0.01,weatherlink.com 1.10,2013-11-11 20:33:00,
2013-11-11 16:48:00,85.7,76.0,29.90,ENE,60,3.0,9.0,73,0.00,,,0.01,weatherlink.com 1.10,2013-11-11 20:48:00,
2013-11-11 17:03:00,85.2,76.0,29.90,ENE,70,5.0,9.0,74,0.00,,,0.01,weatherlink.com 1.10,2013-11-11 21:03:00,
2013-11-11 17:18:00,84.8,77.0,29.91,ENE,77,5.0,8.0,77,0.00,,,0.01,weatherlink.com 1.10,2013-11-11 21:18:00,
2013-11-11 17:33:00,80.8,74.0,29.91,East,92,5.0,9.0,80,0.00,,,0.01,weatherlink.com 1.10,2013-11-11 21:33:00,
2013-11-11 17:48:00,80.1,76.0,29.91,East,98,1.0,5.0,88,0.04,,,0.05,weatherlink.com 1.10,2013-11-11 21:48:00,
2013-11-11 18:03:00,79.7,76.0,29.92,ESE,115,0.0,2.0,89,0.04,,,0.05,weatherlink.com 1.10,2013-11-11 22:03:00,
2013-11-11 18:18:00,79.8,77.0,29.92,NE,38,1.0,2.0,90,0.04,,,0.05,weatherlink.com 1.10,2013-11-11 22:18:00,
2013-11-11 18:33:00,79.4,76.0,29.92,East,82,2.0,7.0,88,0.04,,,0.05,weatherlink.com 1.10,2013-11-11 22:33:00,
2013-11-11 18:48:00,79.5,76.0,29.93,SE,143,0.0,2.0,88,0.00,,,0.05,weatherlink.com 1.10,2013-11-11 22:48:00,
2013-11-11 19:03:00,79.6,76.0,29.93,SE,146,0.0,2.0,89,0.00,,,0.05,weatherlink.com 1.10,2013-11-11 23:03:00,
2013-11-11 19:18:00,79.7,76.0,29.93,SSE,155,0.0,2.0,89,0.00,,,0.05,weatherlink.com 1.10,2013-11-11 23:18:00,
2013-11-11 19:33:00,79.7,76.0,29.93,SE,127,0.0,1.0,89,0.00,,,0.05,weatherlink.com 1.10,2013-11-11 23:33:00,
2013-11-11 19:48:00,79.7,77.0,29.94,SSE,150,2.0,2.0,90,0.00,,,0.05,weatherlink.com 1.10,2013-11-11 23:48:00,
2013-11-11 20:04:00,79.9,77.0,29.94,SSE,158,0.0,2.0,89,0.00,,,0.05,weatherlink.com 1.10,2013-11-12 00:04:00,
2013-11-11 20:19:00,80.0,77.0,29.94,SSE,150,2.0,2.0,89,0.00,,,0.05,weatherlink.com 1.10,2013-11-12 00:19:00,
2013-11-11 20:34:00,79.8,76.0,29.94,SE,139,0.0,2.0,88,0.00,,,0.05,weatherlink.com 1.10,2013-11-12 00:34:00,
2013-11-11 20:49:00,79.7,76.0,29.95,SE,132,0.0,2.0,89,0.00,,,0.05,weatherlink.com 1.10,2013-11-12 00:49:00,
2013-11-11 21:04:00,80.0,76.0,29.95,SE,127,1.0,1.0,88,0.01,,,0.06,weatherlink.com 1.10,2013-11-12 01:04:00,
2013-11-11 21:19:00,80.3,77.0,29.95,SE,143,0.0,2.0,88,0.01,,,0.06,weatherlink.com 1.10,2013-11-12 01:19:00,
2013-11-11 21:34:00,79.9,77.0,29.96,SSE,155,0.0,2.0,89,0.01,,,0.06,weatherlink.com 1.10,2013-11-12 01:34:00,
2013-11-11 21:49:00,79.9,77.0,29.96,ESE,117,0.0,3.0,89,0.01,,,0.06,weatherlink.com 1.10,2013-11-12 01:49:00,
2013-11-11 22:04:00,80.1,76.0,29.96,ESE,122,0.0,-999.0,88,-99.99,,,0.06,weatherlink.com 1.10,2013-11-12 02:04:00,
2013-11-11 22:19:00,79.9,77.0,29.96,SE,133,1.0,2.0,90,0.01,,,0.07,weatherlink.com 1.10,2013-11-12 02:19:00,
2013-11-11 22:34:00,79.8,77.0,29.96,SE,136,0.0,2.0,90,0.01,,,0.07,weatherlink.com 1.10,2013-11-12 02:34:00,
2013-11-11 22:49:00,79.8,77.0,29.96,SE,143,0.0,2.0,90,0.01,,,0.07,weatherlink.com 1.10,2013-11-12 02:49:00,
2013-11-11 23:04:00,79.6,77.0,29.95,SE,134,0.0,1.0,90,0.01,,,0.07,weatherlink.com 1.10,2013-11-12 03:04:00,
2013-11-11 23:19:00,79.2,76.0,29.95,SSE,148,4.0,8.0,90,0.02,,,0.09,weatherlink.com 1.10,2013-11-12 03:19:00,
2013-11-11 23:34:00,79.2,76.0,29.95,ESE,123,0.0,3.0,91,0.02,,,0.09,weatherlink.com 1.10,2013-11-12 03:34:00,
2013-11-11 23:49:00,79.3,77.0,29.95,East,90,0.0,2.0,91,0.02,,,0.09,weatherlink.com 1.10,2013-11-12 03:49:00,